This demonstration page uses our WeatherBlox Daily Observations layout. Learn more.

Left ArrowRight Arrow

Hourly Observations for September 11, 2020

Temp ( °F °C ) Dew Point ( °F °C ) Humidity (%) Winds ( mph kmh ) Pressure ( in mb ) Visibility ( mi km ) Precip ( " mm )
12:59 am 00:59 Mostly Cloudy 76 24.4 73 22.8 91 91 S 5 7 30.10 1019 10 16 0.00 0.00
1:25 am 01:25 Mostly Cloudy 77 25 74 23.3 90 90 S 3 6 30.10 1019 10 16 0.00 0.00
1:59 am 01:59 Mostly Cloudy 77 25 74 23.3 90 90 SW 3 6 30.10 1019 10 16 0.00 0.00
2:45 am 02:45 Mostly Cloudy 77 25 74 23.3 90 90 SW 3 6 30.08 1019 10 16 0.00 0.00
2:59 am 02:59 Mostly Cloudy 77 25 74 23.3 90 90 SW 3 6 30.09 1019 10 16 0.00 0.00
3:59 am 03:59 Partly Cloudy 77 25 74 23.3 90 90 WSW 3 6 30.07 1018 10 16 0.00 0.00
4:59 am 04:59 Mostly Cloudy 78 25.6 75 23.9 90 90 W 7 11 30.07 1018 9 14 0.00 0.00
5:59 am 05:59 Cloudy 78 25.6 75 23.9 90 90 WSW 3 6 30.08 1019 9 14 0.00 0.00
6:59 am 06:59 Cloudy 78 25.6 75 23.9 90 90 WNW 5 7 30.10 1019 9 14 0.00 0.00
7:38 am 07:38 Cloudy 79 26.1 75 23.9 88 88 NW 8 13 30.11 1020 10 16 0.00 0.00
7:59 am 07:59 Mostly Cloudy 79 26.1 74 23.3 85 85 NNW 10 17 30.11 1020 10 16 0.00 0.00
8:27 am 08:27 Mostly Cloudy 79 26.1 74 23.3 85 85 NNW 9 15 30.11 1020 10 16 0.00 0.00
8:59 am 08:59 Cloudy 79 26.1 74 23.3 85 85 NNW 9 15 30.11 1020 10 16 0.00 0.00
9:59 am 09:59 Cloudy 81 27.2 74 23.3 79 79 NNW 7 11 30.11 1020 10 16 0.00 0.00
10:59 am 10:59 Mostly Cloudy 81 27.2 74 23.3 79 79 N 9 15 30.12 1020 10 16 0.00 0.00
11:36 am 11:36 Mostly Cloudy 82 27.8 74 23.3 77 77 N 7 11 30.12 1020 10 16 0.00 0.00
11:59 am 11:59 Cloudy 82 27.8 74 23.3 77 77 N 6 9 30.12 1020 10 16 0.00 0.00
12:59 pm 12:59 Cloudy with Light Rain 79 26.1 76 24.4 90 90 N 10 17 30.11 1020 3 5 0.01 0.25
1:01 pm 13:01 Cloudy with Light Rain 79 26.1 76 24.4 90 90 N 10 17 30.11 1020 3 4 0.00 0.00
1:30 pm 13:30 Cloudy with Light Rain 79 26.1 76 24.4 90 90 N 9 15 30.11 1020 4 6 0.03 0.76
1:59 pm 13:59 Cloudy 82 27.8 76 24.4 82 82 NNE 12 19 30.11 1020 10 16 0.03 0.76
2:21 pm 14:21 Mostly Cloudy 82 27.8 75 23.9 79 79 NNE 12 19 30.10 1019 10 16 0.00 0.00
2:59 pm 14:59 Mostly Cloudy 83 28.3 75 23.9 77 77 NNE 15 24 30.09 1019 10 16 0.00 0.00
3:07 pm 15:07 Cloudy 81 27.2 74 23.3 79 79 ENE 12 19 30.09 1019 10 16 0.00 0.00
3:59 pm 15:59 Cloudy 81 27.2 74 23.3 79 79 ENE 14 22 30.09 1019 10 16 0.00 0.00
4:59 pm 16:59 Cloudy 78 25.6 74 23.3 87 87 NE 14 22 30.09 1019 8 13 0.00 0.00
5:59 pm 17:59 Cloudy 79 26.1 73 22.8 82 82 ENE 12 19 30.09 1019 10 16 0.00 0.00
6:59 pm 18:59 Cloudy 78 25.6 72 22.2 82 82 ENE 16 26 30.11 1020 7 11 0.00 0.00
7:59 pm 19:59 Cloudy 77 25 71 21.7 82 82 NE 15 24 30.12 1020 7 11 0.00 0.00
8:59 pm 20:59 Cloudy 78 25.6 71 21.7 79 79 ENE 16 26 30.14 1021 9 14 0.00 0.00
9:59 pm 21:59 Cloudy 77 25 71 21.7 82 82 ENE 17 28 30.14 1021 8 13 0.00 0.00
10:59 pm 22:59 Cloudy with Light Rain 77 25 71 21.7 82 82 NE 13 20 30.15 1021 6 10 0.00 0.00
11:59 pm 23:59 Cloudy 76 24.4 71 21.7 85 85 NE 14 22 30.14 1021 7 11 0.01 0.25

Powered by AerisWeather